Hourly Data Report for October 15, 2015

All times are specified in Local Standard Time (LST). Add 1 hour to adjust for Daylight Saving Time where and when it is observed.

PENTICTON A
BRITISH COLUMBIA

49°27'45.000" N
119°36'08.000" W
344.40 m
1126146
71889
YYF

Download Data

Hourly Data (October 2015)
Hourly Data Report for October 15, 2015
Temp Definition
°C
Dew Point Temp Definition
°C
Rel Hum Definition
%
Wind Dir Definition
10's deg

Wind Spd Definition
km/h
Visibility Definition
km
Stn Press Definition
kPa
Hmdx Definition


Wind Chill Definition


Weather Definition


TIME
00:00 Legend Double Dagger 5.8 0.6 69 35 15 24.1 98.60     LegendNANA
01:00 Legend Double Dagger 5.4 0.6 71 36 15 24.1 98.61     Mainly Clear
02:00 Legend Double Dagger 6.0 1.2 71 35 11 24.1 98.63     LegendNANA
03:00 Legend Double Dagger 4.1 0.8 79 1 10 24.1 98.63     LegendNANA
04:00 Legend Double Dagger 5.0 1.7 79 1 15 24.1 98.63     Mainly Clear
05:00 Legend Double Dagger 3.7 1.1 83 35 13 24.1 98.67     LegendNANA
06:00 Legend Double Dagger 3.0 0.9 86 1 14 24.1 98.67     LegendNANA
07:00 Legend Double Dagger 3.5 0.9 83 36 12 24.1 98.68     Mainly Clear
08:00 Legend Double Dagger 8.6 3.7 71 35 9 24.1 98.68     LegendNANA
09:00 Legend Double Dagger 10.4 4.6 67 2 14 24.1 98.65     LegendNANA
10:00 Legend Double Dagger 11.4 5.1 65 1 13 24.1 98.62     Mainly Clear
11:00 Legend Double Dagger 12.5 4.3 57 36 15 24.1 98.54     LegendNANA
12:00 Legend Double Dagger 13.2 3.4 51 1 18 24.1 98.45     LegendNANA
13:00 Legend Double Dagger 13.4 3.5 51 35 15 24.1 98.36     Mainly Clear
14:00 Legend Double Dagger 14.2 3.4 48 36 18 24.1 98.28     LegendNANA
15:00 Legend Double Dagger 13.9 3.4 49 1 16 24.1 98.21     LegendNANA
16:00 Legend Double Dagger 13.6 4.0 52 35 13 24.1 98.18     Mostly Cloudy
17:00 Legend Double Dagger 10.6 3.2 60 33 8 24.1 98.14     LegendNANA
18:00 Legend Double Dagger 7.0 2.5 73 35 5 24.1 98.15     LegendNANA
19:00 Legend Double Dagger 7.3 2.4 71 1 11 24.1 98.16     Mainly Clear
20:00 Legend Double Dagger 5.9 1.4 73 36 10 24.1 98.14     LegendNANA
21:00 Legend Double Dagger 4.7 1.0 77 36 8 24.1 98.12     LegendNANA
22:00 Legend Double Dagger 4.5 0.3 74 36 11 24.1 98.14     Mainly Clear
23:00 Legend Double Dagger 4.9 0.7 74 1 9 24.1 98.15     LegendNANA

Notes on Data Quality.

Legend

  • E = Estimated
  • M = Missing
  • NA = Not Available
  • ‡ = Partner data that is not subject to review by the National Climate Archives
Date modified: